This demonstration page uses our WeatherBlox Daily Observations layout. Learn more.

Left ArrowRight Arrow

Hourly Observations for November 30, 2018

Temp ( °F °C ) Dew Point ( °F °C ) Humidity (%) Winds ( mph kmh ) Pressure ( in mb ) Visibility ( mi km ) Precip ( " mm )
12:27 am 00:27 Cloudy with Freezing Fog 30 -1 28 -2 93 93 Calm 29.97 1015 0 0 0.00 0.00
12:57 am 00:57 Cloudy with Freezing Fog 30 -1.1 29 -1.7 96 96 Calm 29.89 1012 0 0 0.00 0.00
1:57 am 01:57 Cloudy with Freezing Fog 31 -0.6 31 -0.6 100 100 Calm 29.88 1012 0 0 0.00 0.00
2:44 am 02:44 Cloudy with Freezing Fog 30 -1 30 -1 100 100 NNE 5 7 29.94 1014 1 1 0.00 0.00
2:57 am 02:57 Cloudy with Freezing Fog 31 -0.6 31 -0.6 100 100 NNE 3 6 29.86 1011 1 1 0.00 0.00
3:20 am 03:20 Cloudy with Freezing Fog 30 -1 30 -1 100 100 ENE 3 6 29.94 1014 0 0 0.00 0.00
3:52 am 03:52 Cloudy with Freezing Fog 30 -1 30 -1 100 100 ENE 5 7 29.94 1014 1 1 0.00 0.00
3:57 am 03:57 Cloudy with Fog 32 0 31 -0.6 96 96 E 5 7 29.86 1011 1 1 0.00 0.00
4:38 am 04:38 Cloudy with Fog 32 0 30 -1 93 93 E 5 7 29.91 1013 0 0 0.00 0.00
4:48 am 04:48 Cloudy with Fog 32 0 30 -1 93 93 E 6 9 29.91 1013 1 1 0.00 0.00
4:57 am 04:57 Cloudy with Fog 32 0 31 -0.6 96 96 E 5 7 29.86 1011 1 1 0.00 0.00
5:24 am 05:24 Cloudy with Fog 32 0 30 -1 93 93 Calm 29.91 1013 0 0 0.00 0.00
5:57 am 05:57 Cloudy with Fog 32 0 31 -0.6 96 96 E 5 7 29.87 1012 0 0 0.00 0.00
6:57 am 06:57 Cloudy with Fog 32 0 32 0 100 100 ESE 9 15 29.87 1012 1 1 0.00 0.00
7:38 am 07:38 Cloudy with Fog 32 0 32 0 100 100 ESE 7 11 29.91 1013 0 0 0.00 0.00
7:57 am 07:57 Cloudy with Fog 32 0 31 -0.6 96 96 ESE 7 11 29.88 1012 0 0 0.00 0.00
8:57 am 08:57 Cloudy with Freezing Fog 31 -0.6 31 -0.6 100 100 E 7 11 29.88 1012 0 0 0.00 0.00
9:57 am 09:57 Cloudy with Fog 32 0 32 0 100 100 ESE 8 13 29.88 1012 1 1 0.00 0.00
10:10 am 10:10 Cloudy with Mist and Fog 34 1 32 0 93 93 ESE 9 15 29.91 1013 1 2 0.00 0.00
10:16 am 10:16 Cloudy with Mist and Fog 34 1 32 0 93 93 ESE 8 13 29.91 1013 2 3 0.00 0.00
10:46 am 10:46 Cloudy with Mist and Fog 36 2 34 1 93 93 E 8 13 29.91 1013 3 5 0.00 0.00
10:55 am 10:55 Cloudy with Mist and Fog 36 2 36 2 100 100 E 10 17 29.91 1013 4 6 0.00 0.00
10:57 am 10:57 Cloudy with Mist and Fog 36 2.2 36 2.2 100 100 E 12 19 29.86 1011 4 6 0.00 0.00
11:26 am 11:26 Partly Cloudy with Mist and Fog 37 3 37 3 100 100 E 9 15 29.85 1011 6 10 0.00 0.00
11:57 am 11:57 Mostly Cloudy with Mist and Fog 39 3.9 38 3.3 96 96 ESE 8 13 29.83 1010 6 10 0.00 0.00
12:57 pm 12:57 Cloudy 39 3.9 36 2.2 89 89 ESE 15 24 29.80 1009 9 14 0.00 0.00
1:36 pm 13:36 Cloudy 39 4 36 2 87 87 ESE 14 22 29.80 1009 9 14 0.00 0.00
1:57 pm 13:57 Cloudy 39 3.9 35 1.7 86 86 E 13 20 29.77 1008 10 16 0.00 0.00
2:32 pm 14:32 Cloudy 39 4 36 2 87 87 E 18 30 29.74 1007 10 16 0.00 0.00
2:57 pm 14:57 Cloudy 39 3.9 35 1.7 86 86 E 15 24 29.74 1007 10 16 0.00 0.00
3:57 pm 15:57 Cloudy 38 3.3 35 1.7 89 89 E 16 26 29.71 1006 10 16 0.00 0.00
4:39 pm 16:39 Cloudy 37 3 36 2 93 93 E 18 30 29.74 1007 9 14 0.00 0.00
4:57 pm 16:57 Cloudy 37 2.8 35 1.7 93 93 E 17 28 29.70 1006 8 13 0.00 0.00
5:07 pm 17:07 Cloudy 37 3 34 1 87 87 E 16 26 29.74 1007 8 13 0.00 0.00
6:12 pm 18:12 Cloudy with Light Rain 36 2 34 1 93 93 E 18 30 29.71 1006 8 13 0.00 0.03
6:57 pm 18:57 Cloudy with Light Rain 36 2.2 35 1.7 97 97 E 20 31 29.67 1005 5 8 0.00 0.03
7:39 pm 19:39 Cloudy with Light Snow 36 2 36 2 100 100 E 15 24 29.68 1005 3 4 0.00 0.00
7:57 pm 19:57 Windy with Snow Likely 36 2.2 35 1.7 97 97 E 20 31 29.63 1003 3 5 0.02 0.51
8:57 pm 20:57 Cloudy with Light Rain 36 2.2 35 1.7 97 97 E 17 28 29.61 1003 6 10 0.01 0.25
9:57 pm 21:57 Cloudy with Light Rain 36 2.2 35 1.7 97 97 E 15 24 29.60 1002 6 10 0.08 2.03
10:57 pm 22:57 Cloudy with Light Rain 36 2.2 35 1.7 97 97 E 13 20 29.56 1001 7 11 0.09 2.29
11:57 pm 23:57 Cloudy with Light Rain 36 2.2 35 1.7 97 97 E 10 17 29.54 1000 5 8 0.10 2.54

Powered by AerisWeather